Waarnemingen

Advertentie
Mijn weer
La Coruna/Alvedro, Spanje (8002): temperatuur & dauwpunt: 14.01.2021 22:00:00 - 20.01.2021 22:00:00 (CET)La Coruna/Alvedro, Spanje (8002): windsnelheid: 14.01.2021 22:00:00 - 20.01.2021 22:00:00 (CET)La Coruna/Alvedro, Spanje (8002): windrichting: 14.01.2021 22:00:00 - 20.01.2021 22:00:00 (CET)La Coruna/Alvedro, Spanje (8002): luchtdruk: 14.01.2021 22:00:00 - 20.01.2021 22:00:00 (CET)La Coruna/Alvedro, Spanje (8002): zicht: 14.01.2021 22:00:00 - 20.01.2021 22:00:00 (CET)La Coruna/Alvedro, Spanje (8002): neerslag: 14.01.2021 22:00:00 - 20.01.2021 22:00:00 (CET)
Datum & Tijd tt [°C] td [°C] ff [km/u] ff [kn] dd ppp [hPa] vv [km] rr [mm]
20.01.2021 22:00:00 11,7 9,9 16 9 W 1003,4 6 -
20.01.2021 21:00:00 11,9 9,6 15 8 W 1002,2 30 -
20.01.2021 20:00:00 12,3 9,5 15 8 WZW 1001,3 30 -
20.01.2021 19:00:00 12,5 9,3 16 9 WZW 1000,1 30 -
20.01.2021 18:00:00 12,9 9,2 21 11 W 999,0 30 -
20.01.2021 17:00:00 12,9 9,3 18 10 W 998,2 10 -
20.01.2021 16:00:00 12,7 9,9 18 10 WZW 997,6 10 -
20.01.2021 15:00:00 12,5 9,9 22 12 W 997,0 30 -
20.01.2021 14:00:00 13,0 9,8 24 13 WZW 996,6 11 -
20.01.2021 13:00:00 12,8 10,2 21 11 WZW 996,5 30 -
20.01.2021 12:00:00 11,9 9,8 26 14 ZW 996,5 7 -
20.01.2021 11:00:00 11,9 10,1 18 10 ZZW 995,5 8 -
20.01.2021 10:00:00 12,0 9,7 29 16 ZZW 995,2 10 -
20.01.2021 09:00:00 11,6 9,2 22 12 Z 995,8 10 -
20.01.2021 08:00:00 11,4 9,1 26 14 Z 996,2 7 -
20.01.2021 07:00:00 10,9 8,6 29 16 Z 996,6 14 -
20.01.2021 06:00:00 10,9 8,5 31 17 Z 997,9 30 -
20.01.2021 05:00:00 10,2 8,1 15 8 ZZO 998,9 10 -
20.01.2021 04:00:00 9,1 7,7 15 8 ZZO 1000,1 10 -
20.01.2021 03:00:00 9,4 7,3 29 16 ZZO 1001,1 8 -
20.01.2021 02:00:00 9,6 7,4 22 12 ZZO 1002,2 11 -
20.01.2021 01:00:00 10,1 7,2 31 17 Z 1003,6 16 -
20.01.2021 00:00:00 10,1 7,3 29 16 Z 1004,8 12 -
19.01.2021 23:00:00 9,8 7,6 24 13 Z 1006,0 8 -
19.01.2021 22:00:00 10,5 7,0 29 16 Z 1007,2 8 -
19.01.2021 21:00:00 11,2 6,1 37 20 Z 1007,0 30 -
19.01.2021 20:00:00 11,4 6,3 34 18 ZZW 1008,8 10 -
19.01.2021 19:00:00 11,4 6,7 29 16 Z 1009,6 10 -
19.01.2021 18:00:00 12,0 6,5 35 19 ZZW 1009,9 10 -
19.01.2021 17:00:00 11,0 7,5 31 17 Z 1011,1 25 -
19.01.2021 16:00:00 12,3 6,0 24 13 Z 1011,9 10 -
19.01.2021 15:00:00 12,0 5,8 26 14 Z 1012,7 10 -
19.01.2021 14:00:00 11,7 4,9 34 18 Z 1013,6 10 -
19.01.2021 13:00:00 11,4 4,4 26 14 Z 1016,1 10 -
19.01.2021 12:00:00 11,2 4,2 28 15 Z 1017,1 30 -
19.01.2021 11:00:00 10,2 3,5 21 11 Z 1017,3 10 -
19.01.2021 10:00:00 9,7 3,6 22 12 ZO 1017,6 10 -
19.01.2021 09:00:00 9,6 4,5 9 5 ZZO 1018,3 30 -
19.01.2021 08:00:00 9,0 4,4 15 8 ZO 1018,8 30 -
19.01.2021 07:00:00 9,5 5,6 16 9 Z 1019,2 27 -
19.01.2021 06:00:00 9,1 4,1 15 8 ZZW 1019,9 10 -
19.01.2021 05:00:00 7,6 3,9 22 12 Z 1020,2 22 -
19.01.2021 04:00:00 8,8 3,9 9 5 - 1021,3 10 -
19.01.2021 03:00:00 7,4 5,5 8 4 - 1021,9 10 -
19.01.2021 02:00:00 6,7 5,6 2 1 - 1023,0 10 -
19.01.2021 01:00:00 7,0 5,9 11 6 ZZO 1023,2 26 -
19.01.2021 00:00:00 6,9 6,6 0 0 N 1023,9 10 -
18.01.2021 23:00:00 6,6 6,2 8 4 Z 1024,2 0,1 -
18.01.2021 22:00:00 7,6 7,0 4 2 - 1024,6 10 -
18.01.2021 21:00:00 8,3 7,4 5 3 Z 1024,7 6 -
18.01.2021 20:00:00 9,2 8,1 0 0 N 1024,7 10 -
18.01.2021 19:00:00 10,2 8,5 4 2 NNW 1024,4 12 -
18.01.2021 18:00:00 11,5 8,9 5 3 N 1024,3 10 -
18.01.2021 17:00:00 12,3 8,8 8 4 N 1024,3 10 -
18.01.2021 16:00:00 13,3 8,8 8 4 NNO 1024,8 30 -
18.01.2021 15:00:00 13,7 8,7 5 3 NNO 1025,5 10 -
18.01.2021 14:00:00 14,5 8,4 0 0 N 1026,4 10 -
18.01.2021 13:00:00 13,5 8,0 4 2 ZZO 1027,4 30 -
18.01.2021 12:00:00 12,1 8,2 4 2 ZO 1028,4 29 -
18.01.2021 11:00:00 10,3 8,6 5 3 ZZO 1028,4 10 -
18.01.2021 10:00:00 9,2 8,9 4 2 - 1028,0 10 -
18.01.2021 09:00:00 9,1 8,8 8 4 Z 1028,2 0,4 -
18.01.2021 08:00:00 10,0 9,7 4 2 ZZO 1028,4 0,1 -
18.01.2021 07:00:00 9,9 9,6 4 2 ZZO 1028,5 0,3 0,0
18.01.2021 06:00:00 10,1 9,8 4 2 Z 1028,4 2,5 -
18.01.2021 05:00:00 10,1 9,8 0 0 N 1028,8 2,1 -
18.01.2021 04:00:00 10,2 9,9 0 0 N 1029,4 0,7 -
18.01.2021 03:00:00 10,3 10,0 0 0 N 1029,5 1,0 -
18.01.2021 02:00:00 10,5 10,2 4 2 W 1029,9 29 -
18.01.2021 01:00:00 10,5 10,2 2 1 - 1030,5 1,2 -
18.01.2021 00:00:00 10,4 9,9 0 0 N 1030,6 1,7 -
17.01.2021 23:00:00 10,6 10,0 0 0 N 1030,7 8 -
17.01.2021 22:00:00 11,0 10,2 4 2 Z 1030,6 10 -
17.01.2021 21:00:00 11,4 10,5 2 1 - 1030,9 10 -
17.01.2021 20:00:00 11,9 10,6 4 2 NNO 1031,1 20 -
17.01.2021 19:00:00 12,1 10,3 2 1 - 1030,9 10 -
17.01.2021 18:00:00 12,6 9,8 5 3 NNW 1030,8 10 -
17.01.2021 17:00:00 13,3 9,7 4 2 - 1030,5 10 -
17.01.2021 16:00:00 13,4 10,7 2 1 - 1030,5 10 -
17.01.2021 15:00:00 12,7 10,8 4 2 - 1030,8 10 -
17.01.2021 14:00:00 12,1 10,5 5 3 Z 1031,4 7 -
17.01.2021 13:00:00 11,9 10,3 5 3 Z 1032,2 5 -
17.01.2021 12:00:00 11,7 9,3 8 4 ZZO 1032,6 25 -
17.01.2021 11:00:00 11,0 9,5 11 6 ZW 1032,2 10 -
17.01.2021 10:00:00 9,2 8,3 4 2 - 1031,7 10 -
17.01.2021 09:00:00 8,8 7,9 9 5 Z 1031,2 10 -
17.01.2021 08:00:00 8,7 7,9 8 4 ZZO 1031,1 20 -
17.01.2021 07:00:00 8,5 7,7 9 5 Z 1030,8 10 -
17.01.2021 06:00:00 8,4 7,8 9 5 Z 1030,7 10 -
17.01.2021 05:00:00 8,5 7,9 9 5 Z 1031,0 9 -
17.01.2021 04:00:00 8,8 8,0 11 6 Z 1031,2 10 -
17.01.2021 03:00:00 9,2 8,1 8 4 Z 1031,1 7 -
17.01.2021 02:00:00 9,4 7,8 8 4 ZZW 1031,1 10 -
17.01.2021 01:00:00 8,6 7,4 9 5 Z 1031,3 9 -
17.01.2021 00:00:00 8,4 6,9 8 4 Z 1031,6 13 -
16.01.2021 23:00:00 8,7 7,3 4 2 ZZO 1031,8 10 -
16.01.2021 22:00:00 8,7 7,5 9 5 Z 1031,5 6 -
16.01.2021 21:00:00 9,6 8,4 8 4 Z 1031,6 5 -
16.01.2021 20:00:00 10,4 8,3 0 0 N 1031,4 8 -
16.01.2021 19:00:00 10,8 8,6 0 0 N 1031,0 10 -
16.01.2021 18:00:00 11,1 8,7 4 2 ZZO 1030,5 30 -
16.01.2021 17:00:00 11,3 8,3 4 2 - 1030,2 10 -
16.01.2021 16:00:00 13,1 6,4 2 1 - 1030,0 10 -
16.01.2021 15:00:00 12,9 6,0 4 2 ZO 1030,1 19 -
16.01.2021 14:00:00 11,5 4,8 5 3 ZZO 1030,5 10 -
16.01.2021 13:00:00 8,9 3,7 9 5 ZZO 1031,3 3,3 -
16.01.2021 12:00:00 5,4 2,0 9 5 Z 1031,8 10 -
16.01.2021 11:00:00 2,3 0,2 9 5 Z 1031,7 10 -
16.01.2021 10:00:00 0,1 -1,2 9 5 Z 1031,4 10 -
16.01.2021 09:00:00 -0,9 -1,7 11 6 Z 1031,4 10 -
16.01.2021 08:00:00 -0,7 -1,4 11 6 Z 1031,1 10 -
16.01.2021 07:00:00 -0,4 -1,1 11 6 Z 1031,2 10 -
16.01.2021 06:00:00 -0,1 -0,7 8 4 Z 1031,3 9 -
16.01.2021 05:00:00 -0,7 -1,3 9 5 Z 1031,2 3,8 -
16.01.2021 04:00:00 0,3 -0,1 8 4 Z 1031,2 9 -
16.01.2021 03:00:00 0,5 0,1 8 4 Z 1031,5 4,0 -
16.01.2021 02:00:00 1,4 0,9 9 5 Z 1031,8 8 -
16.01.2021 01:00:00 2,0 1,5 2 1 - 1032,0 9 -
16.01.2021 00:00:00 2,5 1,9 9 5 Z 1031,7 7 -
15.01.2021 23:00:00 3,1 2,5 8 4 Z 1031,2 4,1 -
15.01.2021 22:00:00 4,3 3,4 8 4 Z 1031,4 8 -
15.01.2021 21:00:00 6,0 4,5 0 0 N 1031,4 10 -
15.01.2021 20:00:00 7,2 4,5 4 2 Z 1031,2 26 -
15.01.2021 19:00:00 8,2 5,0 4 2 WNW 1031,0 17 -
15.01.2021 18:00:00 10,8 4,9 5 3 OZO 1030,4 10 -
15.01.2021 17:00:00 12,2 5,2 5 3 Z 1030,0 10 -
15.01.2021 16:00:00 12,4 5,4 5 3 ZZO 1030,5 10 -
15.01.2021 15:00:00 12,1 6,0 5 3 ZO 1030,6 30 -
15.01.2021 14:00:00 11,3 6,3 5 3 ZZO 1031,5 10 -
15.01.2021 13:00:00 10,5 7,7 8 4 ZZO 1032,3 10 -
15.01.2021 12:00:00 9,2 7,3 8 4 ZZO 1032,9 17 -
15.01.2021 11:00:00 7,3 6,4 4 2 - 1032,6 10 -
15.01.2021 10:00:00 5,4 5,1 5 3 ZZO 1032,2 10 -
15.01.2021 09:00:00 5,7 5,4 9 5 Z 1031,7 14 -
15.01.2021 08:00:00 6,6 6,4 4 2 ZZO 1031,8 4,2 -
15.01.2021 07:00:00 6,7 6,4 9 5 Z 1031,3 0,2 -
15.01.2021 06:00:00 7,4 7,1 4 2 Z 1031,4 0,2 -
15.01.2021 05:00:00 7,5 7,2 5 3 ZZO 1031,2 1,9 -
15.01.2021 04:00:00 8,4 8,1 2 1 - 1031,5 0,2 -
15.01.2021 03:00:00 8,5 8,2 8 4 ZZW 1031,3 2,4 -
15.01.2021 02:00:00 9,1 8,8 4 2 Z 1031,9 2,6 -
15.01.2021 01:00:00 9,1 8,8 2 1 ZZW 1031,9 2,0 -
15.01.2021 00:00:00 9,2 8,9 5 3 Z 1031,8 2,5 -
14.01.2021 23:00:00 9,2 8,7 8 4 Z 1031,6 1,9 -
14.01.2021 22:00:00 9,3 8,8 0 0 N 1031,4 2,4 -

tt = temperatuur
td = dauwpunt
ff = windsnelheid
dd = windrichting
ppp = luchtdruk
vv = zicht
rr = neerslag

Weerstations in de omgeving